Junction, TX

8:50 AM CST on February 20, 2017 (GMT -0600)
Kimble County

Weather History for KJCT - November, 2012

Change the Weather History Date:

Tuesday, November 27, 2012

  Actual Average Record
Temperature  
Mean Temperature 47 °F -  
Max Temperature 57 °F 63 °F 79 °F (2005)
Min Temperature 37 °F 38 °F 17 °F (2010)
Degree Days  
Heating Degree Days 18    
Moisture  
Dew Point 29 °F    
Average Humidity 47    
Maximum Humidity 70    
Minimum Humidity 26    
Precipitation  
Precipitation 0.00 in - - ()
Sea Level Pressure  
Sea Level Pressure 30.29 in    
Wind  
Wind Speed 7 mph (North)    
Max Wind Speed 12 mph    
Max Gust Speed 18 mph    
Visibility 9 miles    
Events      
Averages and records for this station are not official NWS values.
T = Trace of Precipitation, MM = Missing Value Source: NWS Daily Summary

Daily Weather History Graph

Daily Weather History Graph

Search for Another Location

Airport or City:

Trip Planner

Search our weather history database for the weather conditions in past years. The results will help you decide how hot, cold, wet, or windy it might be!

Date:

Astronomy

Nov. 27, 2012 Rise Set
Actual Time 7:15 AM CST 5:38 PM CST
Civil Twilight 6:49 AM CST 6:04 PM CST
Nautical Twilight 6:19 AM CST 6:33 PM CST
Astronomical Twilight 5:50 AM CST 7:02 PM CST
Moon 5:09 PM CST (11/27) 6:23 AM CST (11/27)
Length of Visible Light 11h 14m
Length of Day
10h 22m
Waxing Gibbous, 99% of the Moon is Illuminated
Nov 27
Waxing Gibbous
Nov 28
Full
Dec 6
Last Quarter
Dec 13
New
Dec 19
First Quarter

Hourly Weather History & Observations

Time (CST) Temp. Windchill Dew Point Humidity Pressure Visibility Wind Dir Wind Speed Gust Speed Precip Events Conditions
12:51 AM 52.0 °F - 32.0 °F 47% 30.21 in 9.0 mi NNE 11.5 mph 18.4 mph N/A   Clear
1:51 AM 50.0 °F - 30.9 °F 48% 30.21 in 9.0 mi North 8.1 mph 18.4 mph N/A   Clear
2:51 AM 48.0 °F - 30.0 °F 50% 30.23 in 9.0 mi NNE 9.2 mph - N/A   Clear
3:51 AM 46.0 °F 43.9 °F 28.9 °F 51% 30.24 in 9.0 mi NNE 4.6 mph - N/A   Clear
4:51 AM 45.0 °F 42.6 °F 28.9 °F 53% 30.25 in 9.0 mi North 4.6 mph - N/A   Clear
5:51 AM 43.0 °F 39.5 °F 26.1 °F 51% 30.29 in 9.0 mi North 5.8 mph - N/A   Clear
6:51 AM 39.9 °F 34.5 °F 24.1 °F 53% 30.32 in 9.0 mi North 8.1 mph - N/A   Clear
7:51 AM 39.9 °F 35.8 °F 21.9 °F 49% 30.35 in 9.0 mi North 5.8 mph - N/A   Partly Cloudy
8:51 AM 43.0 °F 38.2 °F 23.0 °F 45% 30.36 in 9.0 mi North 8.1 mph - N/A   Clear
9:51 AM 46.9 °F - 26.1 °F 44% 30.37 in 10.0 mi North 9.2 mph - N/A   Clear
10:51 AM 50.0 °F - 28.0 °F 43% 30.37 in 9.0 mi North 6.9 mph - N/A   Clear
11:51 AM 54.0 °F - 28.9 °F 38% 30.35 in 10.0 mi North 10.4 mph - N/A   Clear
12:51 PM 57.9 °F - 30.0 °F 35% 30.32 in 9.0 mi North 6.9 mph - N/A   Clear
1:51 PM 59.0 °F - 30.9 °F 35% 30.28 in 9.0 mi Calm Calm - N/A   Clear
2:51 PM 61.0 °F - 32.0 °F 34% 30.26 in 9.0 mi SE 3.5 mph - N/A   Clear
3:51 PM 62.1 °F - 33.1 °F 34% 30.25 in 9.0 mi South 3.5 mph - N/A   Clear
4:51 PM 61.0 °F - 33.1 °F 35% 30.26 in 8.0 mi East 6.9 mph - N/A   Clear
5:51 PM 57.0 °F - 33.1 °F 40% 30.27 in 9.0 mi SE 3.5 mph - N/A   Clear
6:51 PM 52.0 °F - 32.0 °F 47% 30.28 in 9.0 mi NNE 4.6 mph - N/A   Clear
7:51 PM 48.9 °F - 32.0 °F 52% 30.30 in 9.0 mi Calm Calm - N/A   Clear
8:51 PM 45.0 °F - 32.0 °F 60% 30.31 in 8.0 mi Calm Calm - N/A   Clear
9:51 PM 39.9 °F 37.8 °F 28.9 °F 65% 30.31 in 8.0 mi West 3.5 mph - N/A   Clear
10:51 PM 39.0 °F 35.7 °F 28.0 °F 65% 30.31 in 10.0 mi West 4.6 mph - N/A   Clear
11:51 PM 37.0 °F 34.5 °F 28.0 °F 70% 30.30 in 10.0 mi West 3.5 mph - N/A   Clear